Kezdőlap
METAR-TAF:

METAR-TAF

Repülőterek :

South St. Paul Municipal Airport (Richard E. Fleming Field)

South St. Paul, Minnesota, Amerikai Egyesült Államok

földrajzi szélesség: 44-51-26N, földrajzi hosszúság: 093-01-58W, magasság: 250 m

Jelenlegi meteorológiai megfigyelések

A jelentés 34 perccel ezelõtt készült, 06:35 UTC
Szélcsend
Hőmérséklet 5°C
Páratartalom 70%
Légköri nyomás 1022 hPa
Látótávolság: 16.1 km
Derült ég

METAR: KSGS 240635Z AUTO 00000KT 10SM CLR 05/00 A3017 RMK AO2 T00451005

Idő: 02:09 (07:09 UTC)


TAF: hiányzik

Meteorológiai megfigyelések és előrejelzések több, mint 4000 repülőtéren (METAR és TAF jelentéseket).

A térképen piros és sárga pontok jelzik az elérhető meteorológiai állomásokat.

Mozgassa az egeret a pont fölött, hogy megjelenjen az állomás neve.

Azután kattintson az időjárási megfigyelések és előrejelzések megtekintéséhez.

A térkép megváltoztatása: kattintson a fekete keresztel jelölt zöld gombra ráközelítéshez, a vonallal jelölt zöld gombra távolításhoz, vagy a zöld nyilakra a szomszédos térképek eléréséhez.


METAR-TAF: